STARLINK-1348 (45561 NORAD) Tracking and Keplerian Element Data

This shows tracking and keplerian element data for the satellite.

Feedback or suggestion? Click here.




ElementValue
Catalog45561
NameSTARLINK-1348
Epoch Orbit1251
Epoch Day189.16667824
Epoch Year2020
RAAN29.144
Inclination52.9981
Eccentricity0.0001432
Argument of Perigee41.4903
Mean Anonmoly296.1802
Mean Motion15.62777151
Decay Rate-0.00018776
L11 45561U 20025AG 20189.16667824 -.00018776 00000-0 -19949-3 0 9996
L22 45561 52.9981 29.1440 0001432 41.4903 296.1802 15.62777151 12517

Live tracking and technical data element details for STARLINK-1348 (NORAD 45561). STARLINK-1348 can be tracked NOW for your location showing map with azimuth and elevation plus other details from your city location.

Track the satellite on the map from your city or location and see movement details for azimuth, elevation, latitude, longitude, range, height, and movement on the map or in text.







IsCatalogInMostPopularTable: catalog: 45561, numindb: 15
Update: records affected: 1



GetName: 45561 STARLINK-1348

Hit Count: updated at: Wed, 08 Jul 2020 04:12:18 GMT